Tracking 18624 objects as of 26-April-2017
HD Live streaming from Space Station
objects crossing your sky now

FLOCK 3P 74

Track FLOCK 3P 74 now!
10-day predictions
FLOCK 3P 74 is classified as:


NORAD ID: 42048
Int'l Code: 2017-008DE
Perigee: 500.6 km
Apogee: 513.5 km
Inclination: 97.5 °
Period: 94.6 minutes
Semi major axis: 6878 km
RCS: Unknown
Launch date: February 15, 2017
Source: United States (US)
Launch site: SIRHARIKOTA (SRI)
Your satellite tracking list
Your tracking list is empty





NASA's NSSDC Master Catalog

Two Line Element Set (TLE):
1 42048U 17008DE  17114.65802902 +.00012367 +00000-0 +54435-3 0  9993
2 42048 097.5036 176.1549 0009390 034.9585 325.2266 15.21955844009557
Source of the keplerian elements: AFSPC